Location: Croisilles
(50.1998°N, 2.8793°E)
Time: 13:33:20
(UTC+00:00)

USA 229 - Pass Details

Date: 21 January 2021
Orbit: 964 x 1248 km, 63.4° (Epoch: 26 February)

Event Time Altitude Azimuth Distance (km) Brightness Sun altitude
Rises 18:54:09 0° 316° (NW) 3,922 7.3 -23.6°
Reaches altitude 10° 18:56:46 10° 317° (NW) 3,002 6.5 -24.0°
Maximum altitude 19:04:00 80° 45° (NE) 1,198 3.8 -25.2°
Enters shadow 19:06:44 44° 126° (SE) 1,603 4.2 -25.6°
